Year,Month,Day,Hour,Minute,Value (Times are PST for temperature in C)
2010,08,21,00,00,12.30
2010,08,21,00,01,12.30
2010,08,21,00,02,12.30
2010,08,21,00,03,12.30
2010,08,21,00,04,12.20
2010,08,21,00,05,12.20
2010,08,21,00,06,12.20
2010,08,21,00,07,12.10
2010,08,21,00,08,12.10
2010,08,21,00,09,12.10
2010,08,21,00,10,12.10
2010,08,21,00,11,12.10
2010,08,21,00,12,12.00
2010,08,21,00,13,12.00
2010,08,21,00,14,12.00
2010,08,21,00,15,11.90
2010,08,21,00,16,11.90
2010,08,21,00,17,11.90
2010,08,21,00,18,11.90
2010,08,21,00,19,11.80
2010,08,21,00,20,11.80
2010,08,21,00,21,11.90
2010,08,21,00,22,11.80
2010,08,21,00,23,11.90
2010,08,21,00,24,11.90
2010,08,21,00,25,11.90
2010,08,21,00,26,11.90
2010,08,21,00,27,11.90
2010,08,21,00,28,11.80
2010,08,21,00,29,11.80
2010,08,21,00,30,11.80
2010,08,21,00,31,11.80
2010,08,21,00,32,11.80
2010,08,21,00,33,11.80
2010,08,21,00,34,11.80
2010,08,21,00,35,11.80
2010,08,21,00,36,11.80
2010,08,21,00,37,11.80
2010,08,21,00,38,11.80
2010,08,21,00,39,11.80
2010,08,21,00,40,11.80
2010,08,21,00,41,11.80
2010,08,21,00,42,11.80
2010,08,21,00,43,11.80
2010,08,21,00,44,11.80
2010,08,21,00,45,11.80
2010,08,21,00,46,11.70
2010,08,21,00,47,11.70
2010,08,21,00,48,11.70
2010,08,21,00,49,11.70
2010,08,21,00,50,11.60
2010,08,21,00,51,11.60
2010,08,21,00,52,11.60
2010,08,21,00,53,11.60
2010,08,21,00,54,11.50
2010,08,21,00,55,11.50
2010,08,21,00,56,11.40
2010,08,21,00,57,11.40
2010,08,21,00,58,11.40
2010,08,21,00,59,11.40
2010,08,21,01,00,11.40
2010,08,21,01,01,11.40
2010,08,21,01,02,11.30
2010,08,21,01,03,11.30
2010,08,21,01,04,11.30
2010,08,21,01,05,11.30
2010,08,21,01,06,11.20
2010,08,21,01,07,11.20
2010,08,21,01,08,11.20
2010,08,21,01,09,11.20
2010,08,21,01,10,11.20
2010,08,21,01,11,11.10
2010,08,21,01,12,11.10
2010,08,21,01,13,11.10
2010,08,21,01,14,11.10
2010,08,21,01,15,11.10
2010,08,21,01,16,11.10
2010,08,21,01,17,11.10
2010,08,21,01,18,11.10
2010,08,21,01,19,11.20
2010,08,21,01,20,11.20
2010,08,21,01,21,11.10
2010,08,21,01,22,11.10
2010,08,21,01,23,11.20
2010,08,21,01,24,11.20
2010,08,21,01,25,11.20
2010,08,21,01,26,11.20
2010,08,21,01,27,11.20
2010,08,21,01,28,11.20
2010,08,21,01,29,11.10
2010,08,21,01,30,11.10
2010,08,21,01,31,11.20
2010,08,21,01,32,11.20
2010,08,21,01,33,11.20
2010,08,21,01,34,11.20
2010,08,21,01,35,11.20
2010,08,21,01,36,11.20
2010,08,21,01,37,11.20
2010,08,21,01,38,11.20
2010,08,21,01,39,11.20
2010,08,21,01,40,11.20
2010,08,21,01,41,11.20
2010,08,21,01,42,11.20
2010,08,21,01,43,11.10
2010,08,21,01,44,11.10
2010,08,21,01,45,11.00
2010,08,21,01,46,11.00
2010,08,21,01,47,11.00
2010,08,21,01,48,10.90
2010,08,21,01,49,10.90
2010,08,21,01,50,10.90
2010,08,21,01,51,10.90
2010,08,21,01,52,10.90
2010,08,21,01,53,10.80
2010,08,21,01,54,10.80
2010,08,21,01,55,10.80
2010,08,21,01,56,10.90
2010,08,21,01,57,10.80
2010,08,21,01,58,10.80
2010,08,21,01,59,10.80
2010,08,21,02,00,10.80
2010,08,21,02,01,10.80
2010,08,21,02,02,10.80
2010,08,21,02,03,10.80
2010,08,21,02,04,10.80
2010,08,21,02,05,10.80
2010,08,21,02,06,10.80
2010,08,21,02,07,10.90
2010,08,21,02,08,10.90
2010,08,21,02,09,10.90
2010,08,21,02,10,10.90
2010,08,21,02,11,10.90
2010,08,21,02,12,10.80
2010,08,21,02,13,10.80
2010,08,21,02,14,10.80
2010,08,21,02,15,10.80
2010,08,21,02,16,10.80
2010,08,21,02,17,10.80
2010,08,21,02,18,10.80
2010,08,21,02,19,10.80
2010,08,21,02,20,10.80
2010,08,21,02,21,10.80
2010,08,21,02,22,10.80
2010,08,21,02,23,10.80
2010,08,21,02,24,10.90
2010,08,21,02,25,10.90
2010,08,21,02,26,10.90
2010,08,21,02,27,10.90
2010,08,21,02,28,10.90
2010,08,21,02,29,10.90
2010,08,21,02,30,10.90
2010,08,21,02,31,10.90
2010,08,21,02,32,10.90
2010,08,21,02,33,10.90
2010,08,21,02,34,10.80
2010,08,21,02,35,10.80
2010,08,21,02,36,10.80
2010,08,21,02,37,10.80
2010,08,21,02,38,10.80
2010,08,21,02,39,10.80
2010,08,21,02,40,10.80
2010,08,21,02,41,10.80
2010,08,21,02,42,10.80
2010,08,21,02,43,10.80
2010,08,21,02,44,10.80
2010,08,21,02,45,10.80
2010,08,21,02,46,10.70
2010,08,21,02,47,10.70
2010,08,21,02,48,10.70
2010,08,21,02,49,10.70
2010,08,21,02,50,10.70
2010,08,21,02,51,10.70
2010,08,21,02,52,10.70
2010,08,21,02,53,10.70
2010,08,21,02,54,10.70
2010,08,21,02,55,10.70
2010,08,21,02,56,10.70
2010,08,21,02,57,10.60
2010,08,21,02,58,10.60
2010,08,21,02,59,10.60
2010,08,21,03,00,10.60
2010,08,21,03,01,10.60
2010,08,21,03,02,10.60
2010,08,21,03,03,10.60
2010,08,21,03,04,10.60
2010,08,21,03,05,10.60
2010,08,21,03,06,10.60
2010,08,21,03,07,10.60
2010,08,21,03,08,10.60
2010,08,21,03,09,10.60
2010,08,21,03,10,10.60
2010,08,21,03,11,10.70
2010,08,21,03,12,10.70
2010,08,21,03,13,10.70
2010,08,21,03,14,10.60
2010,08,21,03,15,10.70
2010,08,21,03,16,10.70
2010,08,21,03,17,10.70
2010,08,21,03,18,10.60
2010,08,21,03,19,10.70
2010,08,21,03,20,10.60
2010,08,21,03,21,10.60
2010,08,21,03,22,10.60
2010,08,21,03,23,10.60
2010,08,21,03,24,10.60
2010,08,21,03,25,10.60
2010,08,21,03,26,10.60
2010,08,21,03,27,10.50
2010,08,21,03,28,10.50
2010,08,21,03,29,10.40
2010,08,21,03,30,10.40
2010,08,21,03,31,10.30
2010,08,21,03,32,10.30
2010,08,21,03,33,10.30
2010,08,21,03,34,10.20
2010,08,21,03,35,10.20
2010,08,21,03,36,10.20
2010,08,21,03,37,10.20
2010,08,21,03,38,10.10
2010,08,21,03,39,10.10
2010,08,21,03,40,10.10
2010,08,21,03,41,10.10
2010,08,21,03,42,10.10
2010,08,21,03,43,10.00
2010,08,21,03,44,10.00
2010,08,21,03,45,10.00
2010,08,21,03,46,10.00
2010,08,21,03,47,9.90
2010,08,21,03,48,9.90
2010,08,21,03,49,9.90
2010,08,21,03,50,9.80
2010,08,21,03,51,9.80
2010,08,21,03,52,9.80
2010,08,21,03,53,9.80
2010,08,21,03,54,9.70
2010,08,21,03,55,9.70
2010,08,21,03,56,9.70
2010,08,21,03,57,9.60
2010,08,21,03,58,9.60
2010,08,21,03,59,9.60
2010,08,21,04,00,9.60
2010,08,21,04,01,9.50
2010,08,21,04,02,9.50
2010,08,21,04,03,9.50
2010,08,21,04,04,9.40
2010,08,21,04,05,9.40
2010,08,21,04,06,9.40
2010,08,21,04,07,9.40
2010,08,21,04,08,9.40
2010,08,21,04,09,9.30
2010,08,21,04,10,9.30
2010,08,21,04,11,9.30
2010,08,21,04,12,9.30
2010,08,21,04,13,9.30
2010,08,21,04,14,9.30
2010,08,21,04,15,9.30
2010,08,21,04,16,9.30
2010,08,21,04,17,9.30
2010,08,21,04,18,9.30
2010,08,21,04,19,9.30
2010,08,21,04,20,9.40
2010,08,21,04,21,9.40
2010,08,21,04,22,9.40
2010,08,21,04,23,9.40
2010,08,21,04,24,9.40
2010,08,21,04,25,9.40
2010,08,21,04,26,9.40
2010,08,21,04,27,9.40
2010,08,21,04,28,9.40
2010,08,21,04,29,9.40
2010,08,21,04,30,9.40
2010,08,21,04,31,9.40
2010,08,21,04,32,9.40
2010,08,21,04,33,9.40
2010,08,21,04,34,9.30
2010,08,21,04,35,9.30
2010,08,21,04,36,9.30
2010,08,21,04,37,9.30
2010,08,21,04,38,9.30
2010,08,21,04,39,9.30
2010,08,21,04,40,9.30
2010,08,21,04,41,9.30
2010,08,21,04,42,9.30
2010,08,21,04,43,9.30
2010,08,21,04,44,9.30
2010,08,21,04,45,9.30
2010,08,21,04,46,9.30
2010,08,21,04,47,9.30
2010,08,21,04,48,9.30
2010,08,21,04,49,9.30
2010,08,21,04,50,9.30
2010,08,21,04,51,9.30
2010,08,21,04,52,9.30
2010,08,21,04,53,9.30
2010,08,21,04,54,9.30
2010,08,21,04,55,9.30
2010,08,21,04,56,9.30
2010,08,21,04,57,9.30
2010,08,21,04,58,9.30
2010,08,21,04,59,9.30
2010,08,21,05,00,9.30
2010,08,21,05,01,9.30
2010,08,21,05,02,9.30
2010,08,21,05,03,9.30
2010,08,21,05,04,9.30
2010,08,21,05,05,9.30
2010,08,21,05,06,9.30
2010,08,21,05,07,9.30
2010,08,21,05,08,9.30
2010,08,21,05,09,9.30
2010,08,21,05,10,9.30
2010,08,21,05,11,9.30
2010,08,21,05,12,9.30
2010,08,21,05,13,9.30
2010,08,21,05,14,9.30
2010,08,21,05,15,9.30
2010,08,21,05,16,9.30
2010,08,21,05,17,9.30
2010,08,21,05,18,9.30
2010,08,21,05,19,9.30
2010,08,21,05,20,9.30
2010,08,21,05,21,9.30
2010,08,21,05,22,9.30
2010,08,21,05,23,9.30
2010,08,21,05,24,9.30
2010,08,21,05,25,9.30
2010,08,21,05,26,9.30
2010,08,21,05,27,9.30
2010,08,21,05,28,9.30
2010,08,21,05,29,9.30
2010,08,21,05,30,9.30
2010,08,21,05,31,9.30
2010,08,21,05,32,9.30
2010,08,21,05,33,9.30
2010,08,21,05,34,9.30
2010,08,21,05,35,9.30
2010,08,21,05,36,9.30
2010,08,21,05,37,9.30
2010,08,21,05,38,9.30
2010,08,21,05,39,9.30
2010,08,21,05,40,9.30
2010,08,21,05,41,9.30
2010,08,21,05,42,9.40
2010,08,21,05,43,9.40
2010,08,21,05,44,9.40
2010,08,21,05,45,9.30
2010,08,21,05,46,9.30
2010,08,21,05,47,9.30
2010,08,21,05,48,9.30
2010,08,21,05,49,9.30
2010,08,21,05,50,9.30
2010,08,21,05,51,9.20
2010,08,21,05,52,9.20
2010,08,21,05,53,9.20
2010,08,21,05,54,9.20
2010,08,21,05,55,9.20
2010,08,21,05,56,9.10
2010,08,21,05,57,9.10
2010,08,21,05,58,9.10
2010,08,21,05,59,9.10
2010,08,21,06,00,9.10
2010,08,21,06,01,9.10
2010,08,21,06,02,9.00
2010,08,21,06,03,9.10
2010,08,21,06,04,9.10
2010,08,21,06,05,9.10
2010,08,21,06,06,9.00
2010,08,21,06,07,9.00
2010,08,21,06,08,9.00
2010,08,21,06,09,9.00
2010,08,21,06,10,9.00
2010,08,21,06,11,8.90
2010,08,21,06,12,8.90
2010,08,21,06,13,8.90
2010,08,21,06,14,8.90
2010,08,21,06,15,8.90
2010,08,21,06,16,8.90
2010,08,21,06,17,8.90
2010,08,21,06,18,8.90
2010,08,21,06,19,8.90
2010,08,21,06,20,8.90
2010,08,21,06,21,8.90
2010,08,21,06,22,8.90
2010,08,21,06,23,8.90
2010,08,21,06,24,8.90
2010,08,21,06,25,8.90
2010,08,21,06,26,8.90
2010,08,21,06,27,8.90
2010,08,21,06,28,8.90
2010,08,21,06,29,8.90
2010,08,21,06,30,8.90
2010,08,21,06,31,8.90
2010,08,21,06,32,8.90
2010,08,21,06,33,8.90
2010,08,21,06,34,8.90
2010,08,21,06,35,8.80
2010,08,21,06,36,8.80
2010,08,21,06,37,8.80
2010,08,21,06,38,8.80
2010,08,21,06,39,8.80
2010,08,21,06,40,8.70
2010,08,21,06,41,8.70
2010,08,21,06,42,8.60
2010,08,21,06,43,8.60
2010,08,21,06,44,8.60
2010,08,21,06,45,8.60
2010,08,21,06,46,8.60
2010,08,21,06,47,8.60
2010,08,21,06,48,8.60
2010,08,21,06,49,8.50
2010,08,21,06,50,8.50
2010,08,21,06,51,8.50
2010,08,21,06,52,8.60
2010,08,21,06,53,8.60
2010,08,21,06,54,8.60
2010,08,21,06,55,8.70
2010,08,21,06,56,8.70
2010,08,21,06,57,8.70
2010,08,21,06,58,8.70
2010,08,21,06,59,8.70
2010,08,21,07,00,8.70
2010,08,21,07,01,8.70
2010,08,21,07,02,8.80
2010,08,21,07,03,8.80
2010,08,21,07,04,8.80
2010,08,21,07,05,8.80
2010,08,21,07,06,8.80
2010,08,21,07,07,8.80
2010,08,21,07,08,8.80
2010,08,21,07,09,8.80
2010,08,21,07,10,8.80
2010,08,21,07,11,8.80
2010,08,21,07,12,8.80
2010,08,21,07,13,8.80
2010,08,21,07,14,8.80
2010,08,21,07,15,8.80
2010,08,21,07,16,8.80
2010,08,21,07,17,8.90
2010,08,21,07,18,8.90
2010,08,21,07,19,9.00
2010,08,21,07,20,9.00
2010,08,21,07,21,9.10
2010,08,21,07,22,9.10
2010,08,21,07,23,9.10
2010,08,21,07,24,9.20
2010,08,21,07,25,9.20
2010,08,21,07,26,9.30
2010,08,21,07,27,9.30
2010,08,21,07,28,9.30
2010,08,21,07,29,9.40
2010,08,21,07,30,9.40
2010,08,21,07,31,9.40
2010,08,21,07,32,9.50
2010,08,21,07,33,9.50
2010,08,21,07,34,9.60
2010,08,21,07,35,9.60
2010,08,21,07,36,9.70
2010,08,21,07,37,9.80
2010,08,21,07,38,9.80
2010,08,21,07,39,9.90
2010,08,21,07,40,10.10
2010,08,21,07,41,10.10
2010,08,21,07,42,10.20
2010,08,21,07,43,10.30
2010,08,21,07,44,10.30
2010,08,21,07,45,10.40
2010,08,21,07,46,10.40
2010,08,21,07,47,10.40
2010,08,21,07,48,10.50
2010,08,21,07,49,10.50
2010,08,21,07,50,10.60
2010,08,21,07,51,10.60
2010,08,21,07,52,10.60
2010,08,21,07,53,10.60
2010,08,21,07,54,10.60
2010,08,21,07,55,10.60
2010,08,21,07,56,10.60
2010,08,21,07,57,10.60
2010,08,21,07,58,10.70
2010,08,21,07,59,10.70
2010,08,21,08,00,10.70
2010,08,21,08,01,10.70
2010,08,21,08,02,10.70
2010,08,21,08,03,10.70
2010,08,21,08,04,10.80
2010,08,21,08,05,10.80
2010,08,21,08,06,10.80
2010,08,21,08,07,10.80
2010,08,21,08,08,10.80
2010,08,21,08,09,10.90
2010,08,21,08,10,10.90
2010,08,21,08,11,10.90
2010,08,21,08,12,11.00
2010,08,21,08,13,11.00
2010,08,21,08,14,11.10
2010,08,21,08,15,11.10
2010,08,21,08,16,11.10
2010,08,21,08,17,11.20
2010,08,21,08,18,11.20
2010,08,21,08,19,11.20
2010,08,21,08,20,11.30
2010,08,21,08,21,11.30
2010,08,21,08,22,11.40
2010,08,21,08,23,11.40
2010,08,21,08,24,11.50
2010,08,21,08,25,11.60
2010,08,21,08,26,11.60
2010,08,21,08,27,11.70
2010,08,21,08,28,11.80
2010,08,21,08,29,11.80
2010,08,21,08,30,11.90
2010,08,21,08,31,11.90
2010,08,21,08,32,12.00
2010,08,21,08,33,12.10
2010,08,21,08,34,12.20
2010,08,21,08,35,12.30
2010,08,21,08,36,12.40
2010,08,21,08,37,12.50
2010,08,21,08,38,12.60
2010,08,21,08,39,12.70
2010,08,21,08,40,12.70
2010,08,21,08,41,12.80
2010,08,21,08,42,13.00
2010,08,21,08,43,13.10
2010,08,21,08,44,13.20
2010,08,21,08,45,13.30
2010,08,21,08,46,13.40
2010,08,21,08,47,13.50
2010,08,21,08,48,13.60
2010,08,21,08,49,13.70
2010,08,21,08,50,13.80
2010,08,21,08,51,13.90
2010,08,21,08,52,14.00
2010,08,21,08,53,14.20
2010,08,21,08,54,14.30
2010,08,21,08,55,14.30
2010,08,21,08,56,14.30
2010,08,21,08,57,14.40
2010,08,21,08,58,14.40
2010,08,21,08,59,14.50
2010,08,21,09,00,14.60
2010,08,21,09,01,14.60
2010,08,21,09,02,14.60
2010,08,21,09,03,14.60
2010,08,21,09,04,14.70
2010,08,21,09,05,14.90
2010,08,21,09,06,15.00
2010,08,21,09,07,15.00
2010,08,21,09,08,15.00
2010,08,21,09,09,15.00
2010,08,21,09,10,15.10
2010,08,21,09,11,15.20
2010,08,21,09,12,15.20
2010,08,21,09,13,15.20
2010,08,21,09,14,15.30
2010,08,21,09,15,15.30
2010,08,21,09,16,15.40
2010,08,21,09,17,15.50
2010,08,21,09,18,15.50
2010,08,21,09,19,15.60
2010,08,21,09,20,15.70
2010,08,21,09,21,15.70
2010,08,21,09,22,15.70
2010,08,21,09,23,15.70
2010,08,21,09,24,15.60
2010,08,21,09,25,15.70
2010,08,21,09,26,15.70
2010,08,21,09,27,15.70
2010,08,21,09,28,15.80
2010,08,21,09,29,15.80
2010,08,21,09,30,15.80
2010,08,21,09,31,15.80
2010,08,21,09,32,15.80
2010,08,21,09,33,15.80
2010,08,21,09,34,15.80
2010,08,21,09,35,15.90
2010,08,21,09,36,15.90
2010,08,21,09,37,16.00
2010,08,21,09,38,16.00
2010,08,21,09,39,16.10
2010,08,21,09,40,16.10
2010,08,21,09,41,16.20
2010,08,21,09,42,16.20
2010,08,21,09,43,16.20
2010,08,21,09,44,16.30
2010,08,21,09,45,16.30
2010,08,21,09,46,16.30
2010,08,21,09,47,16.30
2010,08,21,09,48,16.30
2010,08,21,09,49,16.30
2010,08,21,09,50,16.30
2010,08,21,09,51,16.30
2010,08,21,09,52,16.40
2010,08,21,09,53,16.40
2010,08,21,09,54,16.40
2010,08,21,09,55,16.40
2010,08,21,09,56,16.40
2010,08,21,09,57,16.40
2010,08,21,09,58,16.40
2010,08,21,09,59,16.40
2010,08,21,10,00,16.40
2010,08,21,10,01,16.40
2010,08,21,10,02,16.40
2010,08,21,10,03,16.50
2010,08,21,10,04,16.50
2010,08,21,10,05,16.60
2010,08,21,10,06,16.60
2010,08,21,10,07,16.60
2010,08,21,10,08,16.60
2010,08,21,10,09,16.60
2010,08,21,10,10,16.60
2010,08,21,10,11,16.60
2010,08,21,10,12,16.60
2010,08,21,10,13,16.70
2010,08,21,10,14,16.70
2010,08,21,10,15,16.70
2010,08,21,10,16,16.70
2010,08,21,10,17,16.70
2010,08,21,10,18,16.70
2010,08,21,10,19,16.70
2010,08,21,10,20,16.60
2010,08,21,10,21,16.60
2010,08,21,10,22,16.60
2010,08,21,10,23,16.70
2010,08,21,10,24,16.60
2010,08,21,10,25,16.60
2010,08,21,10,26,16.70
2010,08,21,10,27,16.70
2010,08,21,10,28,16.70
2010,08,21,10,29,16.70
2010,08,21,10,30,16.70
2010,08,21,10,31,16.70
2010,08,21,10,32,16.70
2010,08,21,10,33,16.70
2010,08,21,10,34,16.70
2010,08,21,10,35,16.60
2010,08,21,10,36,16.60
2010,08,21,10,37,16.60
2010,08,21,10,38,16.60
2010,08,21,10,39,16.50
2010,08,21,10,40,16.50
2010,08,21,10,41,16.50
2010,08,21,10,42,16.50
2010,08,21,10,43,16.60
2010,08,21,10,44,16.50
2010,08,21,10,45,16.50
2010,08,21,10,46,16.60
2010,08,21,10,47,16.70
2010,08,21,10,48,16.70
2010,08,21,10,49,16.80
2010,08,21,10,50,16.80
2010,08,21,10,51,16.70
2010,08,21,10,52,16.70
2010,08,21,10,53,16.80
2010,08,21,10,54,16.80
2010,08,21,10,55,16.80
2010,08,21,10,56,16.80
2010,08,21,10,57,16.80
2010,08,21,10,58,16.90
2010,08,21,10,59,17.00
2010,08,21,11,00,17.00
2010,08,21,11,01,16.90
2010,08,21,11,02,17.00
2010,08,21,11,03,17.00
2010,08,21,11,04,17.00
2010,08,21,11,05,17.10
2010,08,21,11,06,17.10
2010,08,21,11,07,17.10
2010,08,21,11,08,17.00
2010,08,21,11,09,16.90
2010,08,21,11,10,16.90
2010,08,21,11,11,17.00
2010,08,21,11,12,17.00
2010,08,21,11,13,17.00
2010,08,21,11,14,17.10
2010,08,21,11,15,17.10
2010,08,21,11,16,17.00
2010,08,21,11,17,17.00
2010,08,21,11,18,16.90
2010,08,21,11,19,17.00
2010,08,21,11,20,17.00
2010,08,21,11,21,17.00
2010,08,21,11,22,17.00
2010,08,21,11,23,17.00
2010,08,21,11,24,17.00
2010,08,21,11,25,16.90
2010,08,21,11,26,16.90
2010,08,21,11,27,17.00
2010,08,21,11,28,17.10
2010,08,21,11,29,17.10
2010,08,21,11,30,17.10
2010,08,21,11,31,17.10
2010,08,21,11,32,17.20
2010,08,21,11,33,17.20
2010,08,21,11,34,17.20
2010,08,21,11,35,17.20
2010,08,21,11,36,17.10
2010,08,21,11,37,17.10
2010,08,21,11,38,17.10
2010,08,21,11,39,17.00
2010,08,21,11,40,17.00
2010,08,21,11,41,17.10
2010,08,21,11,42,17.20
2010,08,21,11,43,17.20
2010,08,21,11,44,17.20
2010,08,21,11,45,17.20
2010,08,21,11,46,17.10
2010,08,21,11,47,17.20
2010,08,21,11,48,17.10
2010,08,21,11,49,17.10
2010,08,21,11,50,17.10
2010,08,21,11,51,17.10
2010,08,21,11,52,17.10
2010,08,21,11,53,17.20
2010,08,21,11,54,17.30
2010,08,21,11,55,17.30
2010,08,21,11,56,17.30
2010,08,21,11,57,17.20
2010,08,21,11,58,17.30
2010,08,21,11,59,17.40
2010,08,21,12,00,17.40
2010,08,21,12,01,17.40
2010,08,21,12,02,17.40
2010,08,21,12,03,17.30
2010,08,21,12,04,17.30
2010,08,21,12,05,17.20
2010,08,21,12,06,17.20
2010,08,21,12,07,17.30
2010,08,21,12,08,17.20
2010,08,21,12,09,17.30
2010,08,21,12,10,17.30
2010,08,21,12,11,17.30
2010,08,21,12,12,17.30
2010,08,21,12,13,17.30
2010,08,21,12,14,17.20
2010,08,21,12,15,17.10
2010,08,21,12,16,17.10
2010,08,21,12,17,17.10
2010,08,21,12,18,17.10
2010,08,21,12,19,17.20
2010,08,21,12,20,17.30
2010,08,21,12,21,17.40
2010,08,21,12,22,17.50
2010,08,21,12,23,17.50
2010,08,21,12,24,17.40
2010,08,21,12,25,17.40
2010,08,21,12,26,17.40
2010,08,21,12,27,17.40
2010,08,21,12,28,17.40
2010,08,21,12,29,17.40
2010,08,21,12,30,17.40
2010,08,21,12,31,17.30
2010,08,21,12,32,17.30
2010,08,21,12,33,17.30
2010,08,21,12,34,17.30
2010,08,21,12,35,17.40
2010,08,21,12,36,17.40
2010,08,21,12,37,17.40
2010,08,21,12,38,17.40
2010,08,21,12,39,17.50
2010,08,21,12,40,17.60
2010,08,21,12,41,17.70
2010,08,21,12,42,17.70
2010,08,21,12,43,17.70
2010,08,21,12,44,17.70
2010,08,21,12,45,17.70
2010,08,21,12,46,17.80
2010,08,21,12,47,17.90
2010,08,21,12,48,17.90
2010,08,21,12,49,17.80
2010,08,21,12,50,17.70
2010,08,21,12,51,17.70
2010,08,21,12,52,17.80
2010,08,21,12,53,17.80
2010,08,21,12,54,17.80
2010,08,21,12,55,17.90
2010,08,21,12,56,18.00
2010,08,21,12,57,18.00
2010,08,21,12,58,18.00
2010,08,21,12,59,18.00
2010,08,21,13,00,18.00
2010,08,21,13,01,18.10
2010,08,21,13,02,18.20
2010,08,21,13,03,18.10
2010,08,21,13,04,18.00
2010,08,21,13,05,18.00
2010,08,21,13,06,18.00
2010,08,21,13,07,18.10
2010,08,21,13,08,18.00
2010,08,21,13,09,18.10
2010,08,21,13,10,18.10
2010,08,21,13,11,18.20
2010,08,21,13,12,18.20
2010,08,21,13,13,18.20
2010,08,21,13,14,18.20
2010,08,21,13,15,18.10
2010,08,21,13,16,18.00
2010,08,21,13,17,18.00
2010,08,21,13,18,17.90
2010,08,21,13,19,17.80
2010,08,21,13,20,17.70
2010,08,21,13,21,17.50
2010,08,21,13,22,17.40
2010,08,21,13,23,17.20
2010,08,21,13,24,17.20
2010,08,21,13,25,17.20
2010,08,21,13,26,17.20
2010,08,21,13,27,17.20
2010,08,21,13,28,17.20
2010,08,21,13,29,17.20
2010,08,21,13,30,17.20
2010,08,21,13,31,17.10
2010,08,21,13,32,17.10
2010,08,21,13,33,17.10
2010,08,21,13,34,17.20
2010,08,21,13,35,17.20
2010,08,21,13,36,17.20
2010,08,21,13,37,17.30
2010,08,21,13,38,17.20
2010,08,21,13,39,17.20
2010,08,21,13,40,17.20
2010,08,21,13,41,17.20
2010,08,21,13,42,17.20
2010,08,21,13,43,17.10
2010,08,21,13,44,17.10
2010,08,21,13,45,17.10
2010,08,21,13,46,17.10
2010,08,21,13,47,17.10
2010,08,21,13,48,17.20
2010,08,21,13,49,17.20
2010,08,21,13,50,17.10
2010,08,21,13,51,17.00
2010,08,21,13,52,17.00
2010,08,21,13,53,17.00
2010,08,21,13,54,17.10
2010,08,21,13,55,17.20
2010,08,21,13,56,17.20
2010,08,21,13,57,17.30
2010,08,21,13,58,17.30
2010,08,21,13,59,17.30
2010,08,21,14,00,17.30
2010,08,21,14,01,17.40
2010,08,21,14,02,17.50
2010,08,21,14,03,17.50
2010,08,21,14,04,17.60
2010,08,21,14,05,17.60
2010,08,21,14,06,17.60
2010,08,21,14,07,17.60
2010,08,21,14,08,17.60
2010,08,21,14,09,17.60
2010,08,21,14,10,17.70
2010,08,21,14,11,17.70
2010,08,21,14,12,17.80
2010,08,21,14,13,17.80
2010,08,21,14,14,17.90
2010,08,21,14,15,17.90
2010,08,21,14,16,17.90
2010,08,21,14,17,17.90
2010,08,21,14,18,17.90
2010,08,21,14,19,17.80
2010,08,21,14,20,17.90
2010,08,21,14,21,18.00
2010,08,21,14,22,18.00
2010,08,21,14,23,18.10
2010,08,21,14,24,18.10
2010,08,21,14,25,18.10
2010,08,21,14,26,18.20
2010,08,21,14,27,18.20
2010,08,21,14,28,18.20
2010,08,21,14,29,18.20
2010,08,21,14,30,18.30
2010,08,21,14,31,18.30
2010,08,21,14,32,18.40
2010,08,21,14,33,18.30
2010,08,21,14,34,18.30
2010,08,21,14,35,18.20
2010,08,21,14,36,18.10
2010,08,21,14,37,18.10
2010,08,21,14,38,18.20
2010,08,21,14,39,18.20
2010,08,21,14,40,18.10
2010,08,21,14,41,18.10
2010,08,21,14,42,18.20
2010,08,21,14,43,18.30
2010,08,21,14,44,18.30
2010,08,21,14,45,18.30
2010,08,21,14,46,18.30
2010,08,21,14,47,18.50
2010,08,21,14,48,18.60
2010,08,21,14,49,18.70
2010,08,21,14,50,18.90
2010,08,21,14,51,19.10
2010,08,21,14,52,19.40
2010,08,21,14,53,19.70
2010,08,21,14,54,19.90
2010,08,21,14,55,20.00
2010,08,21,14,56,20.10
2010,08,21,14,57,20.10
2010,08,21,14,58,20.20
2010,08,21,14,59,20.20
2010,08,21,15,00,20.20
2010,08,21,15,01,20.20
2010,08,21,15,02,20.20
2010,08,21,15,03,20.10
2010,08,21,15,04,20.20
2010,08,21,15,05,20.20
2010,08,21,15,06,20.30
2010,08,21,15,07,20.30
2010,08,21,15,08,20.40
2010,08,21,15,09,20.40
2010,08,21,15,10,20.40
2010,08,21,15,11,20.40
2010,08,21,15,12,20.40
2010,08,21,15,13,20.40
2010,08,21,15,14,20.40
2010,08,21,15,15,20.40
2010,08,21,15,16,20.50
2010,08,21,15,17,20.50
2010,08,21,15,18,20.50
2010,08,21,15,19,20.40
2010,08,21,15,20,20.40
2010,08,21,15,21,20.50
2010,08,21,15,22,20.60
2010,08,21,15,23,20.60
2010,08,21,15,24,20.50
2010,08,21,15,25,20.40
2010,08,21,15,26,20.40
2010,08,21,15,27,20.50
2010,08,21,15,28,20.60
2010,08,21,15,29,20.70
2010,08,21,15,30,20.70
2010,08,21,15,31,20.60
2010,08,21,15,32,20.60
2010,08,21,15,33,20.50
2010,08,21,15,34,20.50
2010,08,21,15,35,20.40
2010,08,21,15,36,20.40
2010,08,21,15,37,20.40
2010,08,21,15,38,20.50
2010,08,21,15,39,20.50
2010,08,21,15,40,20.50
2010,08,21,15,41,20.50
2010,08,21,15,42,20.60
2010,08,21,15,43,20.70
2010,08,21,15,44,20.80
2010,08,21,15,45,20.80
2010,08,21,15,46,20.80
2010,08,21,15,47,20.80
2010,08,21,15,48,20.90
2010,08,21,15,49,21.00
2010,08,21,15,50,21.10
2010,08,21,15,51,21.10
2010,08,21,15,52,21.10
2010,08,21,15,53,21.20
2010,08,21,15,54,21.20
2010,08,21,15,55,21.20
2010,08,21,15,56,21.20
2010,08,21,15,57,21.20
2010,08,21,15,58,21.20
2010,08,21,15,59,21.10
2010,08,21,16,00,21.00
2010,08,21,16,01,20.90
2010,08,21,16,02,20.90
2010,08,21,16,03,20.80
2010,08,21,16,04,20.80
2010,08,21,16,05,20.70
2010,08,21,16,06,20.70
2010,08,21,16,07,20.70
2010,08,21,16,08,20.60
2010,08,21,16,09,20.70
2010,08,21,16,10,20.70
2010,08,21,16,11,20.70
2010,08,21,16,12,20.80
2010,08,21,16,13,20.90
2010,08,21,16,14,21.00
2010,08,21,16,15,21.10
2010,08,21,16,16,21.10
2010,08,21,16,17,21.10
2010,08,21,16,18,21.00
2010,08,21,16,19,21.00
2010,08,21,16,20,21.10
2010,08,21,16,21,21.10
2010,08,21,16,22,21.10
2010,08,21,16,23,21.20
2010,08,21,16,24,21.30
2010,08,21,16,25,21.30
2010,08,21,16,26,21.40
2010,08,21,16,27,21.40
2010,08,21,16,28,21.40
2010,08,21,16,29,21.40
2010,08,21,16,30,21.40
2010,08,21,16,31,21.40
2010,08,21,16,32,21.40
2010,08,21,16,33,21.40
2010,08,21,16,34,21.30
2010,08,21,16,35,21.20
2010,08,21,16,36,21.10
2010,08,21,16,37,21.00
2010,08,21,16,38,21.00
2010,08,21,16,39,21.00
2010,08,21,16,40,20.90
2010,08,21,16,41,20.90
2010,08,21,16,42,20.80
2010,08,21,16,43,20.70
2010,08,21,16,44,20.70
2010,08,21,16,45,20.70
2010,08,21,16,46,20.70
2010,08,21,16,47,20.70
2010,08,21,16,48,20.70
2010,08,21,16,49,20.80
2010,08,21,16,50,20.90
2010,08,21,16,51,20.90
2010,08,21,16,52,21.00
2010,08,21,16,53,21.00
2010,08,21,16,54,21.00
2010,08,21,16,55,21.00
2010,08,21,16,56,21.00
2010,08,21,16,57,21.00
2010,08,21,16,58,21.00
2010,08,21,16,59,20.90
2010,08,21,17,00,20.90
2010,08,21,17,01,20.80
2010,08,21,17,02,20.70
2010,08,21,17,03,20.70
2010,08,21,17,04,20.70
2010,08,21,17,05,20.70
2010,08,21,17,06,20.70
2010,08,21,17,07,20.70
2010,08,21,17,08,20.60
2010,08,21,17,09,20.60
2010,08,21,17,10,20.70
2010,08,21,17,11,20.70
2010,08,21,17,12,20.70
2010,08,21,17,13,20.80
2010,08,21,17,14,20.80
2010,08,21,17,15,20.80
2010,08,21,17,16,20.90
2010,08,21,17,17,20.90
2010,08,21,17,18,20.90
2010,08,21,17,19,20.90
2010,08,21,17,20,20.80
2010,08,21,17,21,20.80
2010,08,21,17,22,20.80
2010,08,21,17,23,20.80
2010,08,21,17,24,20.80
2010,08,21,17,25,20.80
2010,08,21,17,26,20.80
2010,08,21,17,27,20.80
2010,08,21,17,28,20.80
2010,08,21,17,29,20.80